owner,sensor,date,latitude,longitude,vertical_datum,sea_water_practical_salinity,qcFlag 
TCOON,ioos:station:TCOON:042:1,2011-08-01T00:00:00Z,27.8888,-97.5696,0.0,50.6,1111122 
TCOON,ioos:station:TCOON:042:1,2011-08-01T00:30:00Z,27.8888,-97.5696,0.0,50.2,1111122 
TCOON,ioos:station:TCOON:042:1,2011-08-01T01:30:00Z,27.8888,-97.5696,0.0,50.5,1111122 
TCOON,ioos:station:TCOON:042:1,2011-08-01T02:30:00Z,27.8888,-97.5696,0.0,50.2,1111122 
TCOON,ioos:station:TCOON:042:1,2011-08-01T03:00:00Z,27.8888,-97.5696,0.0,50.3,1111122 
TCOON,ioos:station:TCOON:042:1,2011-08-01T03:30:00Z,27.8888,-97.5696,0.0,50.3,1111122 
TCOON,ioos:station:TCOON:042:1,2011-08-01T04:30:00Z,27.8888,-97.5696,0.0,50.4,1111122 
TCOON,ioos:station:TCOON:042:1,2011-08-01T05:30:00Z,27.8888,-97.5696,0.0,50.4,1111122 
TCOON,ioos:station:TCOON:042:1,2011-08-01T06:30:00Z,27.8888,-97.5696,0.0,50.4,1111122 
TCOON,ioos:station:TCOON:042:1,2011-08-01T07:00:00Z,27.8888,-97.5696,0.0,50.5,1111122 
TCOON,ioos:station:TCOON:042:1,2011-08-01T07:30:00Z,27.8888,-97.5696,0.0,50.6,1111122 
TCOON,ioos:station:TCOON:042:1,2011-08-01T08:00:00Z,27.8888,-97.5696,0.0,51.5,1111122 
TCOON,ioos:station:TCOON:042:1,2011-08-01T08:30:00Z,27.8888,-97.5696,0.0,52.8,1111122 
TCOON,ioos:station:TCOON:042:1,2011-08-01T09:00:00Z,27.8888,-97.5696,0.0,53.6,1111122 
TCOON,ioos:station:TCOON:042:1,2011-08-01T09:30:00Z,27.8888,-97.5696,0.0,53.8,1111122 
TCOON,ioos:station:TCOON:042:1,2011-08-01T11:00:00Z,27.8888,-97.5696,0.0,54.3,1111122 
TCOON,ioos:station:TCOON:042:1,2011-08-01T11:30:00Z,27.8888,-97.5696,0.0,54.4,1111122 
TCOON,ioos:station:TCOON:042:1,2011-08-01T12:00:00Z,27.8888,-97.5696,0.0,54.4,1111122 
TCOON,ioos:station:TCOON:042:1,2011-08-01T12:30:00Z,27.8888,-97.5696,0.0,54.4,1111122 
TCOON,ioos:station:TCOON:042:1,2011-08-01T13:00:00Z,27.8888,-97.5696,0.0,54.3,1111122 
TCOON,ioos:station:TCOON:042:1,2011-08-01T13:30:00Z,27.8888,-97.5696,0.0,54.3,1111122 
TCOON,ioos:station:TCOON:042:1,2011-08-01T14:00:00Z,27.8888,-97.5696,0.0,54.3,1111122 
TCOON,ioos:station:TCOON:042:1,2011-08-01T14:30:00Z,27.8888,-97.5696,0.0,54.4,1111122 
TCOON,ioos:station:TCOON:042:1,2011-08-01T15:00:00Z,27.8888,-97.5696,0.0,54.4,1111122 
TCOON,ioos:station:TCOON:042:1,2011-08-01T15:30:00Z,27.8888,-97.5696,0.0,54.4,1111122 
TCOON,ioos:station:TCOON:042:1,2011-08-01T16:00:00Z,27.8888,-97.5696,0.0,54.5,1111122 
TCOON,ioos:station:TCOON:042:1,2011-08-01T17:00:00Z,27.8888,-97.5696,0.0,54.8,1111122 
TCOON,ioos:station:TCOON:042:1,2011-08-01T17:30:00Z,27.8888,-97.5696,0.0,54.9,1111122 
TCOON,ioos:station:TCOON:042:1,2011-08-01T18:00:00Z,27.8888,-97.5696,0.0,55.0,1111122 
TCOON,ioos:station:TCOON:042:1,2011-08-01T19:00:00Z,27.8888,-97.5696,0.0,55.3,1111122 
TCOON,ioos:station:TCOON:042:1,2011-08-01T19:30:00Z,27.8888,-97.5696,0.0,55.3,1111122 
TCOON,ioos:station:TCOON:042:1,2011-08-01T20:00:00Z,27.8888,-97.5696,0.0,53.4,1111122 
TCOON,ioos:station:TCOON:042:1,2011-08-01T20:30:00Z,27.8888,-97.5696,0.0,52.2,1111122 
TCOON,ioos:station:TCOON:042:1,2011-08-01T21:00:00Z,27.8888,-97.5696,0.0,51.8,1111122 
TCOON,ioos:station:TCOON:042:1,2011-08-01T21:30:00Z,27.8888,-97.5696,0.0,51.5,1111122 
TCOON,ioos:station:TCOON:042:1,2011-08-01T22:30:00Z,27.8888,-97.5696,0.0,51.5,1111122 
TCOON,ioos:station:TCOON:042:1,2011-08-01T23:30:00Z,27.8888,-97.5696,0.0,51.8,1111122 
TCOON,ioos:station:TCOON:042:1,2011-08-02T00:30:00Z,27.8888,-97.5696,0.0,51.7,1111122 
TCOON,ioos:station:TCOON:042:1,2011-08-02T03:00:00Z,27.8888,-97.5696,0.0,51.4,1111122 
TCOON,ioos:station:TCOON:042:1,2011-08-02T04:30:00Z,27.8888,-97.5696,0.0,51.4,1111122 
TCOON,ioos:station:TCOON:042:1,2011-08-02T05:00:00Z,27.8888,-97.5696,0.0,51.5,1111122 
TCOON,ioos:station:TCOON:042:1,2011-08-02T06:00:00Z,27.8888,-97.5696,0.0,51.4,1111122 
TCOON,ioos:station:TCOON:042:1,2011-08-02T06:30:00Z,27.8888,-97.5696,0.0,51.5,1111122 
TCOON,ioos:station:TCOON:042:1,2011-08-02T07:30:00Z,27.8888,-97.5696,0.0,51.4,1111122 
TCOON,ioos:station:TCOON:042:1,2011-08-02T08:00:00Z,27.8888,-97.5696,0.0,51.5,1111122 
TCOON,ioos:station:TCOON:042:1,2011-08-02T09:30:00Z,27.8888,-97.5696,0.0,52.8,1111122 
TCOON,ioos:station:TCOON:042:1,2011-08-02T10:00:00Z,27.8888,-97.5696,0.0,54.7,1111122 
TCOON,ioos:station:TCOON:042:1,2011-08-02T10:30:00Z,27.8888,-97.5696,0.0,55.9,1111122 
TCOON,ioos:station:TCOON:042:1,2011-08-02T11:00:00Z,27.8888,-97.5696,0.0,56.5,1111122 
TCOON,ioos:station:TCOON:042:1,2011-08-02T11:30:00Z,27.8888,-97.5696,0.0,56.5,1111122 
TCOON,ioos:station:TCOON:042:1,2011-08-02T12:30:00Z,27.8888,-97.5696,0.0,56.3,1111122 
TCOON,ioos:station:TCOON:042:1,2011-08-02T13:00:00Z,27.8888,-97.5696,0.0,56.4,1111122 
TCOON,ioos:station:TCOON:042:1,2011-08-02T14:00:00Z,27.8888,-97.5696,0.0,56.7,1111122 
TCOON,ioos:station:TCOON:042:1,2011-08-02T14:30:00Z,27.8888,-97.5696,0.0,56.8,1111122 
TCOON,ioos:station:TCOON:042:1,2011-08-02T15:00:00Z,27.8888,-97.5696,0.0,57.0,1111122 
TCOON,ioos:station:TCOON:042:1,2011-08-02T15:30:00Z,27.8888,-97.5696,0.0,57.0,1111122 
TCOON,ioos:station:TCOON:042:1,2011-08-02T16:00:00Z,27.8888,-97.5696,0.0,57.0,1111122 
TCOON,ioos:station:TCOON:042:1,2011-08-02T16:30:00Z,27.8888,-97.5696,0.0,57.0,1111122 
TCOON,ioos:station:TCOON:042:1,2011-08-02T17:00:00Z,27.8888,-97.5696,0.0,57.0,1111122 
TCOON,ioos:station:TCOON:042:1,2011-08-02T17:30:00Z,27.8888,-97.5696,0.0,57.1,1111122 
TCOON,ioos:station:TCOON:042:1,2011-08-02T18:00:00Z,27.8888,-97.5696,0.0,57.2,1111122 
TCOON,ioos:station:TCOON:042:1,2011-08-02T18:30:00Z,27.8888,-97.5696,0.0,57.4,1111122 
TCOON,ioos:station:TCOON:042:1,2011-08-02T19:00:00Z,27.8888,-97.5696,0.0,56.3,1111122 
TCOON,ioos:station:TCOON:042:1,2011-08-02T19:30:00Z,27.8888,-97.5696,0.0,54.6,1111122 
TCOON,ioos:station:TCOON:042:1,2011-08-02T20:00:00Z,27.8888,-97.5696,0.0,54.0,1111122 
TCOON,ioos:station:TCOON:042:1,2011-08-02T21:00:00Z,27.8888,-97.5696,0.0,53.2,1111122 
TCOON,ioos:station:TCOON:042:1,2011-08-02T21:30:00Z,27.8888,-97.5696,0.0,53.0,1111122 
TCOON,ioos:station:TCOON:042:1,2011-08-02T22:00:00Z,27.8888,-97.5696,0.0,53.0,1111122 
TCOON,ioos:station:TCOON:042:1,2011-08-02T22:30:00Z,27.8888,-97.5696,0.0,52.9,1111122 
TCOON,ioos:station:TCOON:042:1,2011-08-02T23:00:00Z,27.8888,-97.5696,0.0,53.0,1111122 
TCOON,ioos:station:TCOON:042:1,2011-08-02T23:30:00Z,27.8888,-97.5696,0.0,52.8,1111122 
TCOON,ioos:station:TCOON:042:1,2011-08-03T00:00:00Z,27.8888,-97.5696,0.0,52.9,1111122 
TCOON,ioos:station:TCOON:042:1,2011-08-03T00:30:00Z,27.8888,-97.5696,0.0,52.8,1111122 
TCOON,ioos:station:TCOON:042:1,2011-08-03T01:00:00Z,27.8888,-97.5696,0.0,52.9,1111122 
TCOON,ioos:station:TCOON:042:1,2011-08-03T02:00:00Z,27.8888,-97.5696,0.0,52.8,1111122 
TCOON,ioos:station:TCOON:042:1,2011-08-03T02:30:00Z,27.8888,-97.5696,0.0,52.5,1111122 
TCOON,ioos:station:TCOON:042:1,2011-08-03T03:00:00Z,27.8888,-97.5696,0.0,52.3,1111122 
TCOON,ioos:station:TCOON:042:1,2011-08-03T04:00:00Z,27.8888,-97.5696,0.0,52.1,1111122 
TCOON,ioos:station:TCOON:042:1,2011-08-03T04:30:00Z,27.8888,-97.5696,0.0,52.1,1111122 
TCOON,ioos:station:TCOON:042:1,2011-08-03T05:00:00Z,27.8888,-97.5696,0.0,52.0,1111122 
TCOON,ioos:station:TCOON:042:1,2011-08-03T06:00:00Z,27.8888,-97.5696,0.0,52.7,1111122 
TCOON,ioos:station:TCOON:042:1,2011-08-03T06:30:00Z,27.8888,-97.5696,0.0,52.6,1111122 
TCOON,ioos:station:TCOON:042:1,2011-08-03T07:00:00Z,27.8888,-97.5696,0.0,52.4,1111122 
TCOON,ioos:station:TCOON:042:1,2011-08-03T07:30:00Z,27.8888,-97.5696,0.0,52.3,1111122 
TCOON,ioos:station:TCOON:042:1,2011-08-03T08:00:00Z,27.8888,-97.5696,0.0,52.2,1111122 
TCOON,ioos:station:TCOON:042:1,2011-08-03T10:00:00Z,27.8888,-97.5696,0.0,54.4,1111122 
TCOON,ioos:station:TCOON:042:1,2011-08-03T11:30:00Z,27.8888,-97.5696,0.0,57.1,1111122 
TCOON,ioos:station:TCOON:042:1,2011-08-03T12:30:00Z,27.8888,-97.5696,0.0,57.7,1111122 
TCOON,ioos:station:TCOON:042:1,2011-08-03T13:30:00Z,27.8888,-97.5696,0.0,57.6,1111122 
TCOON,ioos:station:TCOON:042:1,2011-08-03T15:00:00Z,27.8888,-97.5696,0.0,57.9,1111122 
TCOON,ioos:station:TCOON:042:1,2011-08-03T17:30:00Z,27.8888,-97.5696,0.0,58.6,1111122 
TCOON,ioos:station:TCOON:042:1,2011-08-03T18:00:00Z,27.8888,-97.5696,0.0,58.6,1111122 
TCOON,ioos:station:TCOON:042:1,2011-08-03T19:00:00Z,27.8888,-97.5696,0.0,58.9,1111122 
TCOON,ioos:station:TCOON:042:1,2011-08-04T00:30:00Z,27.8888,-97.5696,0.0,54.1,1111122 
TCOON,ioos:station:TCOON:042:1,2011-08-04T01:00:00Z,27.8888,-97.5696,0.0,54.4,1111122 
TCOON,ioos:station:TCOON:042:1,2011-08-04T01:30:00Z,27.8888,-97.5696,0.0,54.2,1111122 
TCOON,ioos:station:TCOON:042:1,2011-08-04T02:00:00Z,27.8888,-97.5696,0.0,54.3,1111122 
TCOON,ioos:station:TCOON:042:1,2011-08-04T02:30:00Z,27.8888,-97.5696,0.0,54.2,1111122 
TCOON,ioos:station:TCOON:042:1,2011-08-04T03:00:00Z,27.8888,-97.5696,0.0,54.2,1111122 
TCOON,ioos:station:TCOON:042:1,2011-08-04T04:00:00Z,27.8888,-97.5696,0.0,54.0,1111122 
TCOON,ioos:station:TCOON:042:1,2011-08-04T04:30:00Z,27.8888,-97.5696,0.0,54.0,1111122 
TCOON,ioos:station:TCOON:042:1,2011-08-04T05:00:00Z,27.8888,-97.5696,0.0,54.2,1111122 
TCOON,ioos:station:TCOON:042:1,2011-08-04T05:30:00Z,27.8888,-97.5696,0.0,55.8,1111122 
TCOON,ioos:station:TCOON:042:1,2011-08-04T06:30:00Z,27.8888,-97.5696,0.0,55.3,1111122 
TCOON,ioos:station:TCOON:042:1,2011-08-04T07:00:00Z,27.8888,-97.5696,0.0,56.1,1111122 
TCOON,ioos:station:TCOON:042:1,2011-08-04T07:30:00Z,27.8888,-97.5696,0.0,55.6,1111122 
TCOON,ioos:station:TCOON:042:1,2011-08-04T08:30:00Z,27.8888,-97.5696,0.0,54.5,1111122 
TCOON,ioos:station:TCOON:042:1,2011-08-04T09:00:00Z,27.8888,-97.5696,0.0,54.5,1111122 
TCOON,ioos:station:TCOON:042:1,2011-08-04T09:30:00Z,27.8888,-97.5696,0.0,54.5,1111122 
TCOON,ioos:station:TCOON:042:1,2011-08-04T10:30:00Z,27.8888,-97.5696,0.0,54.7,1111122 
TCOON,ioos:station:TCOON:042:1,2011-08-04T11:00:00Z,27.8888,-97.5696,0.0,56.2,1111122 
TCOON,ioos:station:TCOON:042:1,2011-08-04T11:30:00Z,27.8888,-97.5696,0.0,58.6,1111122 
TCOON,ioos:station:TCOON:042:1,2011-08-04T12:00:00Z,27.8888,-97.5696,0.0,59.4,1111122 
TCOON,ioos:station:TCOON:042:1,2011-08-04T12:30:00Z,27.8888,-97.5696,0.0,59.4,1111122 
TCOON,ioos:station:TCOON:042:1,2011-08-04T13:30:00Z,27.8888,-97.5696,0.0,59.3,1111122 
TCOON,ioos:station:TCOON:042:1,2011-08-04T14:00:00Z,27.8888,-97.5696,0.0,59.4,1111122 
TCOON,ioos:station:TCOON:042:1,2011-08-04T14:30:00Z,27.8888,-97.5696,0.0,59.4,1111122 
TCOON,ioos:station:TCOON:042:1,2011-08-04T15:30:00Z,27.8888,-97.5696,0.0,59.6,1111122 
TCOON,ioos:station:TCOON:042:1,2011-08-04T17:30:00Z,27.8888,-97.5696,0.0,59.9,1111122 
TCOON,ioos:station:TCOON:042:1,2011-08-04T18:00:00Z,27.8888,-97.5696,0.0,55.8,1111122 
TCOON,ioos:station:TCOON:042:1,2011-08-04T18:30:00Z,27.8888,-97.5696,0.0,55.3,1111122 
TCOON,ioos:station:TCOON:042:1,2011-08-04T19:00:00Z,27.8888,-97.5696,0.0,55.3,1111122 
TCOON,ioos:station:TCOON:042:1,2011-08-04T19:30:00Z,27.8888,-97.5696,0.0,55.7,1111122 
TCOON,ioos:station:TCOON:042:1,2011-08-04T20:00:00Z,27.8888,-97.5696,0.0,55.7,1111122 
TCOON,ioos:station:TCOON:042:1,2011-08-04T20:30:00Z,27.8888,-97.5696,0.0,55.9,1111122 
TCOON,ioos:station:TCOON:042:1,2011-08-04T21:00:00Z,27.8888,-97.5696,0.0,55.8,1111122 
TCOON,ioos:station:TCOON:042:1,2011-08-04T21:30:00Z,27.8888,-97.5696,0.0,55.9,1111122 
TCOON,ioos:station:TCOON:042:1,2011-08-04T22:00:00Z,27.8888,-97.5696,0.0,55.9,1111122 
TCOON,ioos:station:TCOON:042:1,2011-08-04T23:00:00Z,27.8888,-97.5696,0.0,56.1,1111122 
TCOON,ioos:station:TCOON:042:1,2011-08-04T23:30:00Z,27.8888,-97.5696,0.0,56.2,1111122 
TCOON,ioos:station:TCOON:042:1,2011-08-05T01:00:00Z,27.8888,-97.5696,0.0,56.4,1111122 
TCOON,ioos:station:TCOON:042:1,2011-08-05T01:30:00Z,27.8888,-97.5696,0.0,56.5,1111122 
TCOON,ioos:station:TCOON:042:1,2011-08-05T02:00:00Z,27.8888,-97.5696,0.0,56.4,1111122 
TCOON,ioos:station:TCOON:042:1,2011-08-05T02:30:00Z,27.8888,-97.5696,0.0,56.3,1111122 
TCOON,ioos:station:TCOON:042:1,2011-08-05T03:00:00Z,27.8888,-97.5696,0.0,56.3,1111122 
TCOON,ioos:station:TCOON:042:1,2011-08-05T03:30:00Z,27.8888,-97.5696,0.0,56.2,1111122 
TCOON,ioos:station:TCOON:042:1,2011-08-05T04:00:00Z,27.8888,-97.5696,0.0,56.6,1111122 
TCOON,ioos:station:TCOON:042:1,2011-08-05T05:00:00Z,27.8888,-97.5696,0.0,56.7,1111122 
TCOON,ioos:station:TCOON:042:1,2011-08-05T05:30:00Z,27.8888,-97.5696,0.0,56.5,1111122 
TCOON,ioos:station:TCOON:042:1,2011-08-05T06:00:00Z,27.8888,-97.5696,0.0,56.6,1111122 
TCOON,ioos:station:TCOON:042:1,2011-08-05T06:30:00Z,27.8888,-97.5696,0.0,56.6,1111122 
TCOON,ioos:station:TCOON:042:1,2011-08-05T07:00:00Z,27.8888,-97.5696,0.0,56.5,1111122 
TCOON,ioos:station:TCOON:042:1,2011-08-05T07:30:00Z,27.8888,-97.5696,0.0,56.7,1111122 
TCOON,ioos:station:TCOON:042:1,2011-08-05T08:00:00Z,27.8888,-97.5696,0.0,57.4,1111122 
TCOON,ioos:station:TCOON:042:1,2011-08-05T08:30:00Z,27.8888,-97.5696,0.0,59.3,1111122 
TCOON,ioos:station:TCOON:042:1,2011-08-05T09:00:00Z,27.8888,-97.5696,0.0,60.5,1111122 
TCOON,ioos:station:TCOON:042:1,2011-08-05T10:30:00Z,27.8888,-97.5696,0.0,60.6,1111122 
TCOON,ioos:station:TCOON:042:1,2011-08-05T11:00:00Z,27.8888,-97.5696,0.0,60.8,1111122 
TCOON,ioos:station:TCOON:042:1,2011-08-05T11:30:00Z,27.8888,-97.5696,0.0,60.8,1111122 
TCOON,ioos:station:TCOON:042:1,2011-08-05T12:00:00Z,27.8888,-97.5696,0.0,60.9,1111122 
TCOON,ioos:station:TCOON:042:1,2011-08-05T12:30:00Z,27.8888,-97.5696,0.0,60.9,1111122 
TCOON,ioos:station:TCOON:042:1,2011-08-05T13:00:00Z,27.8888,-97.5696,0.0,61.1,1111122 
TCOON,ioos:station:TCOON:042:1,2011-08-05T13:30:00Z,27.8888,-97.5696,0.0,61.1,1111122 
TCOON,ioos:station:TCOON:042:1,2011-08-05T19:00:00Z,27.8888,-97.5696,0.0,56.9,1111122 
TCOON,ioos:station:TCOON:042:1,2011-08-05T20:00:00Z,27.8888,-97.5696,0.0,56.7,1111122 
TCOON,ioos:station:TCOON:042:1,2011-08-05T20:30:00Z,27.8888,-97.5696,0.0,56.8,1111122 
TCOON,ioos:station:TCOON:042:1,2011-08-05T21:00:00Z,27.8888,-97.5696,0.0,56.8,1111122 
TCOON,ioos:station:TCOON:042:1,2011-08-05T21:30:00Z,27.8888,-97.5696,0.0,57.0,1111122 
TCOON,ioos:station:TCOON:042:1,2011-08-05T22:00:00Z,27.8888,-97.5696,0.0,56.9,1111122 
TCOON,ioos:station:TCOON:042:1,2011-08-05T22:30:00Z,27.8888,-97.5696,0.0,57.1,1111122 
TCOON,ioos:station:TCOON:042:1,2011-08-05T23:00:00Z,27.8888,-97.5696,0.0,57.0,1111122 
TCOON,ioos:station:TCOON:042:1,2011-08-06T00:00:00Z,27.8888,-97.5696,0.0,57.2,1111122 
TCOON,ioos:station:TCOON:042:1,2011-08-06T00:30:00Z,27.8888,-97.5696,0.0,57.2,1111122 
TCOON,ioos:station:TCOON:042:1,2011-08-06T01:00:00Z,27.8888,-97.5696,0.0,57.1,1111122 
TCOON,ioos:station:TCOON:042:1,2011-08-06T01:30:00Z,27.8888,-97.5696,0.0,57.1,1111122 
TCOON,ioos:station:TCOON:042:1,2011-08-06T02:30:00Z,27.8888,-97.5696,0.0,57.0,1111122 
TCOON,ioos:station:TCOON:042:1,2011-08-06T03:00:00Z,27.8888,-97.5696,0.0,57.0,1111122 
TCOON,ioos:station:TCOON:042:1,2011-08-06T03:30:00Z,27.8888,-97.5696,0.0,56.9,1111122 
TCOON,ioos:station:TCOON:042:1,2011-08-06T04:00:00Z,27.8888,-97.5696,0.0,57.0,1111122 
TCOON,ioos:station:TCOON:042:1,2011-08-06T04:30:00Z,27.8888,-97.5696,0.0,57.0,1111122 
TCOON,ioos:station:TCOON:042:1,2011-08-06T05:00:00Z,27.8888,-97.5696,0.0,57.1,1111122 
TCOON,ioos:station:TCOON:042:1,2011-08-06T05:30:00Z,27.8888,-97.5696,0.0,57.1,1111122 
TCOON,ioos:station:TCOON:042:1,2011-08-06T06:00:00Z,27.8888,-97.5696,0.0,57.3,1111122 
TCOON,ioos:station:TCOON:042:1,2011-08-06T06:30:00Z,27.8888,-97.5696,0.0,57.4,1111122 
TCOON,ioos:station:TCOON:042:1,2011-08-06T07:00:00Z,27.8888,-97.5696,0.0,59.9,1111122 
TCOON,ioos:station:TCOON:042:1,2011-08-06T08:00:00Z,27.8888,-97.5696,0.0,62.2,1111122 
TCOON,ioos:station:TCOON:042:1,2011-08-06T08:30:00Z,27.8888,-97.5696,0.0,62.5,1111122 
TCOON,ioos:station:TCOON:042:1,2011-08-06T09:30:00Z,27.8888,-97.5696,0.0,62.4,1111122 
TCOON,ioos:station:TCOON:042:1,2011-08-06T11:00:00Z,27.8888,-97.5696,0.0,62.6,1111122 
TCOON,ioos:station:TCOON:042:1,2011-08-06T11:30:00Z,27.8888,-97.5696,0.0,62.5,1111122 
TCOON,ioos:station:TCOON:042:1,2011-08-06T12:00:00Z,27.8888,-97.5696,0.0,62.3,1111122 
TCOON,ioos:station:TCOON:042:1,2011-08-06T12:30:00Z,27.8888,-97.5696,0.0,62.2,1111122 
TCOON,ioos:station:TCOON:042:1,2011-08-06T13:00:00Z,27.8888,-97.5696,0.0,62.2,1111122 
TCOON,ioos:station:TCOON:042:1,2011-08-06T13:30:00Z,27.8888,-97.5696,0.0,62.3,1111122 
TCOON,ioos:station:TCOON:042:1,2011-08-06T14:00:00Z,27.8888,-97.5696,0.0,62.4,1111122 
TCOON,ioos:station:TCOON:042:1,2011-08-06T14:30:00Z,27.8888,-97.5696,0.0,62.4,1111122 
TCOON,ioos:station:TCOON:042:1,2011-08-06T15:00:00Z,27.8888,-97.5696,0.0,62.5,1111122 
TCOON,ioos:station:TCOON:042:1,2011-08-06T15:30:00Z,27.8888,-97.5696,0.0,62.5,1111122 
TCOON,ioos:station:TCOON:042:1,2011-08-06T17:00:00Z,27.8888,-97.5696,0.0,58.9,1111122 
TCOON,ioos:station:TCOON:042:1,2011-08-06T17:30:00Z,27.8888,-97.5696,0.0,58.1,1111122 
TCOON,ioos:station:TCOON:042:1,2011-08-06T18:00:00Z,27.8888,-97.5696,0.0,58.0,1111122 
TCOON,ioos:station:TCOON:042:1,2011-08-06T18:30:00Z,27.8888,-97.5696,0.0,58.1,1111122 
TCOON,ioos:station:TCOON:042:1,2011-08-06T19:00:00Z,27.8888,-97.5696,0.0,58.1,1111122 
TCOON,ioos:station:TCOON:042:1,2011-08-06T19:30:00Z,27.8888,-97.5696,0.0,58.1,1111122 
TCOON,ioos:station:TCOON:042:1,2011-08-06T20:00:00Z,27.8888,-97.5696,0.0,58.3,1111122 
TCOON,ioos:station:TCOON:042:1,2011-08-06T20:30:00Z,27.8888,-97.5696,0.0,58.2,1111122 
TCOON,ioos:station:TCOON:042:1,2011-08-06T22:00:00Z,27.8888,-97.5696,0.0,58.3,1111122 
TCOON,ioos:station:TCOON:042:1,2011-08-06T23:00:00Z,27.8888,-97.5696,0.0,58.2,1111122 
TCOON,ioos:station:TCOON:042:1,2011-08-06T23:30:00Z,27.8888,-97.5696,0.0,58.0,1111122 
TCOON,ioos:station:TCOON:042:1,2011-08-07T00:00:00Z,27.8888,-97.5696,0.0,57.9,1111122 
TCOON,ioos:station:TCOON:042:1,2011-08-07T00:30:00Z,27.8888,-97.5696,0.0,57.5,1111122 
TCOON,ioos:station:TCOON:042:1,2011-08-07T01:00:00Z,27.8888,-97.5696,0.0,57.5,1111122 
TCOON,ioos:station:TCOON:042:1,2011-08-07T01:30:00Z,27.8888,-97.5696,0.0,57.9,1111122 
TCOON,ioos:station:TCOON:042:1,2011-08-07T03:00:00Z,27.8888,-97.5696,0.0,56.7,1111122 
TCOON,ioos:station:TCOON:042:1,2011-08-07T03:30:00Z,27.8888,-97.5696,0.0,56.7,1111122 
TCOON,ioos:station:TCOON:042:1,2011-08-07T04:00:00Z,27.8888,-97.5696,0.0,57.0,1111122 
TCOON,ioos:station:TCOON:042:1,2011-08-07T04:30:00Z,27.8888,-97.5696,0.0,57.2,1111122 
TCOON,ioos:station:TCOON:042:1,2011-08-07T05:00:00Z,27.8888,-97.5696,0.0,57.1,1111122 
TCOON,ioos:station:TCOON:042:1,2011-08-07T05:30:00Z,27.8888,-97.5696,0.0,57.1,1111122 
TCOON,ioos:station:TCOON:042:1,2011-08-07T06:00:00Z,27.8888,-97.5696,0.0,57.9,1111122 
TCOON,ioos:station:TCOON:042:1,2011-08-07T06:30:00Z,27.8888,-97.5696,0.0,58.6,1111122 
TCOON,ioos:station:TCOON:042:1,2011-08-07T07:00:00Z,27.8888,-97.5696,0.0,58.3,1111122 
TCOON,ioos:station:TCOON:042:1,2011-08-07T07:30:00Z,27.8888,-97.5696,0.0,59.2,1111122 
TCOON,ioos:station:TCOON:042:1,2011-08-07T08:00:00Z,27.8888,-97.5696,0.0,59.5,1111122 
TCOON,ioos:station:TCOON:042:1,2011-08-07T08:30:00Z,27.8888,-97.5696,0.0,60.3,1111122 
TCOON,ioos:station:TCOON:042:1,2011-08-07T09:00:00Z,27.8888,-97.5696,0.0,60.3,1111122 
TCOON,ioos:station:TCOON:042:1,2011-08-07T10:00:00Z,27.8888,-97.5696,0.0,60.9,1111122 
TCOON,ioos:station:TCOON:042:1,2011-08-07T10:30:00Z,27.8888,-97.5696,0.0,61.2,1111122 
TCOON,ioos:station:TCOON:042:1,2011-08-07T11:00:00Z,27.8888,-97.5696,0.0,61.5,1111122 
TCOON,ioos:station:TCOON:042:1,2011-08-07T11:30:00Z,27.8888,-97.5696,0.0,61.7,1111122 
TCOON,ioos:station:TCOON:042:1,2011-08-07T12:00:00Z,27.8888,-97.5696,0.0,62.0,1111122 
TCOON,ioos:station:TCOON:042:1,2011-08-07T12:30:00Z,27.8888,-97.5696,0.0,62.3,1111122 
TCOON,ioos:station:TCOON:042:1,2011-08-07T13:00:00Z,27.8888,-97.5696,0.0,62.7,1111122 
TCOON,ioos:station:TCOON:042:1,2011-08-07T14:00:00Z,27.8888,-97.5696,0.0,63.0,1111122 
TCOON,ioos:station:TCOON:042:1,2011-08-07T14:30:00Z,27.8888,-97.5696,0.0,62.7,1111122 
TCOON,ioos:station:TCOON:042:1,2011-08-07T15:00:00Z,27.8888,-97.5696,0.0,63.1,1111122 
TCOON,ioos:station:TCOON:042:1,2011-08-07T15:30:00Z,27.8888,-97.5696,0.0,62.3,1111122 
TCOON,ioos:station:TCOON:042:1,2011-08-07T16:00:00Z,27.8888,-97.5696,0.0,62.3,1111122 
TCOON,ioos:station:TCOON:042:1,2011-08-07T17:00:00Z,27.8888,-97.5696,0.0,57.2,1111122 
TCOON,ioos:station:TCOON:042:1,2011-08-07T17:30:00Z,27.8888,-97.5696,0.0,57.3,1111122 
TCOON,ioos:station:TCOON:042:1,2011-08-07T18:00:00Z,27.8888,-97.5696,0.0,57.3,1111122 
TCOON,ioos:station:TCOON:042:1,2011-08-07T20:00:00Z,27.8888,-97.5696,0.0,58.4,1111122 
TCOON,ioos:station:TCOON:042:1,2011-08-07T20:30:00Z,27.8888,-97.5696,0.0,58.3,1111122 
TCOON,ioos:station:TCOON:042:1,2011-08-07T21:00:00Z,27.8888,-97.5696,0.0,58.5,1111122 
TCOON,ioos:station:TCOON:042:1,2011-08-07T21:30:00Z,27.8888,-97.5696,0.0,58.5,1111122 
TCOON,ioos:station:TCOON:042:1,2011-08-07T22:00:00Z,27.8888,-97.5696,0.0,58.6,1111122 
TCOON,ioos:station:TCOON:042:1,2011-08-07T22:30:00Z,27.8888,-97.5696,0.0,58.1,1111122 
TCOON,ioos:station:TCOON:042:1,2011-08-07T23:30:00Z,27.8888,-97.5696,0.0,58.0,1111122 
TCOON,ioos:station:TCOON:042:1,2011-08-08T00:00:00Z,27.8888,-97.5696,0.0,57.3,1111122 
TCOON,ioos:station:TCOON:042:1,2011-08-08T00:30:00Z,27.8888,-97.5696,0.0,57.3,1111122 
TCOON,ioos:station:TCOON:042:1,2011-08-08T01:30:00Z,27.8888,-97.5696,0.0,56.5,1111122 
TCOON,ioos:station:TCOON:042:1,2011-08-08T02:30:00Z,27.8888,-97.5696,0.0,54.4,1111122 
TCOON,ioos:station:TCOON:042:1,2011-08-08T03:30:00Z,27.8888,-97.5696,0.0,53.7,1111122 
TCOON,ioos:station:TCOON:042:1,2011-08-08T04:00:00Z,27.8888,-97.5696,0.0,54.2,1111122 
TCOON,ioos:station:TCOON:042:1,2011-08-08T04:30:00Z,27.8888,-97.5696,0.0,54.8,1111122 
TCOON,ioos:station:TCOON:042:1,2011-08-08T05:00:00Z,27.8888,-97.5696,0.0,54.6,1111122 
TCOON,ioos:station:TCOON:042:1,2011-08-08T05:30:00Z,27.8888,-97.5696,0.0,55.3,1111122 
TCOON,ioos:station:TCOON:042:1,2011-08-08T06:00:00Z,27.8888,-97.5696,0.0,58.0,1111122 
TCOON,ioos:station:TCOON:042:1,2011-08-08T06:30:00Z,27.8888,-97.5696,0.0,58.2,1111122 
TCOON,ioos:station:TCOON:042:1,2011-08-08T07:00:00Z,27.8888,-97.5696,0.0,55.5,1111122 
TCOON,ioos:station:TCOON:042:1,2011-08-08T07:30:00Z,27.8888,-97.5696,0.0,55.1,1111122 
TCOON,ioos:station:TCOON:042:1,2011-08-08T08:30:00Z,27.8888,-97.5696,0.0,55.2,1111122 
TCOON,ioos:station:TCOON:042:1,2011-08-08T09:00:00Z,27.8888,-97.5696,0.0,55.5,1111122 
TCOON,ioos:station:TCOON:042:1,2011-08-08T09:30:00Z,27.8888,-97.5696,0.0,59.4,1111122 
TCOON,ioos:station:TCOON:042:1,2011-08-08T10:00:00Z,27.8888,-97.5696,0.0,63.0,1111122 
TCOON,ioos:station:TCOON:042:1,2011-08-08T10:30:00Z,27.8888,-97.5696,0.0,64.4,1111122 
TCOON,ioos:station:TCOON:042:1,2011-08-08T11:00:00Z,27.8888,-97.5696,0.0,64.4,1111122 
TCOON,ioos:station:TCOON:042:1,2011-08-08T13:00:00Z,27.8888,-97.5696,0.0,62.7,1111122 
TCOON,ioos:station:TCOON:042:1,2011-08-08T14:00:00Z,27.8888,-97.5696,0.0,62.8,1111122 
TCOON,ioos:station:TCOON:042:1,2011-08-08T14:30:00Z,27.8888,-97.5696,0.0,62.9,1111122 
TCOON,ioos:station:TCOON:042:1,2011-08-08T15:00:00Z,27.8888,-97.5696,0.0,63.1,1111122 
TCOON,ioos:station:TCOON:042:1,2011-08-08T16:00:00Z,27.8888,-97.5696,0.0,63.5,1111122 
TCOON,ioos:station:TCOON:042:1,2011-08-08T18:30:00Z,27.8888,-97.5696,0.0,59.1,1111122 
TCOON,ioos:station:TCOON:042:1,2011-08-08T19:30:00Z,27.8888,-97.5696,0.0,59.5,1111122 
TCOON,ioos:station:TCOON:042:1,2011-08-08T20:00:00Z,27.8888,-97.5696,0.0,59.4,1111122 
TCOON,ioos:station:TCOON:042:1,2011-08-08T21:00:00Z,27.8888,-97.5696,0.0,59.7,1111122 
TCOON,ioos:station:TCOON:042:1,2011-08-08T21:30:00Z,27.8888,-97.5696,0.0,59.7,1111122 
TCOON,ioos:station:TCOON:042:1,2011-08-08T22:00:00Z,27.8888,-97.5696,0.0,59.6,1111122 
TCOON,ioos:station:TCOON:042:1,2011-08-08T22:30:00Z,27.8888,-97.5696,0.0,59.5,1111122 
TCOON,ioos:station:TCOON:042:1,2011-08-08T23:00:00Z,27.8888,-97.5696,0.0,59.7,1111122 
TCOON,ioos:station:TCOON:042:1,2011-08-08T23:30:00Z,27.8888,-97.5696,0.0,59.9,1111122 
TCOON,ioos:station:TCOON:042:1,2011-08-09T00:30:00Z,27.8888,-97.5696,0.0,59.8,1111122 
TCOON,ioos:station:TCOON:042:1,2011-08-09T01:00:00Z,27.8888,-97.5696,0.0,59.7,1111122 
TCOON,ioos:station:TCOON:042:1,2011-08-09T02:00:00Z,27.8888,-97.5696,0.0,59.7,1111122 